When you browse on this site, cookies collect data to enhance your experience and personalize the content and advertising you see.
Visit our Privacy Policy to learn more. By continuing to use the site, you agree to this use of cookies and data.
  • In Österreich
  • Länderverzeichnis
  • Für 7 Tage
  • Wassertemperatur
  • Wetterkarte
  • News
  • Widgets
  • user-avatar
    Anmelden

    Stündliche Wetter Lobcha

    Heute, 17 September, Dienstag

    Zeit Temperatur Niederschläge Wind Luftdruck Luftfeuchtigkeit
    00:00 +10°C° 0 mm 4 m/S 745 mmHg 76%
    01:00 +8°C° 0 mm 4 m/S 745 mmHg 79%
    02:00 +7°C° 0 mm 4 m/S 744 mmHg 82%
    03:00 +7°C° 0 mm 4 m/S 744 mmHg 81%
    04:00 +7°C° 0 mm 4 m/S 744 mmHg 81%
    05:00 +7°C° 0 mm 4 m/S 744 mmHg 80%
    06:00 +7°C° 0 mm 5 m/S 744 mmHg 79%
    07:00 +8°C° 0 mm 5 m/S 744 mmHg 78%
    08:00 +9°C° 0 mm 6 m/S 744 mmHg 77%
    09:00 +10°C° 0 mm 6 m/S 744 mmHg 70%
    10:00 +13°C° 0 mm 6 m/S 744 mmHg 64%
    11:00 +14°C° 0 mm 6 m/S 744 mmHg 57%
    12:00 +14°C° 0.1 mm 6 m/S 744 mmHg 57%
    13:00 +15°C° 0.1 mm 6 m/S 743 mmHg 56%
    14:00 +15°C° 0 mm 6 m/S 743 mmHg 55%
    15:00 +15°C° 0.3 mm 5 m/S 742 mmHg 60%
    16:00 +14°C° 0.3 mm 5 m/S 742 mmHg 64%
    17:00 +13°C° 0.3 mm 4 m/S 741 mmHg 68%
    18:00 +12°C° 0.2 mm 4 m/S 741 mmHg 70%
    19:00 +11°C° 0.2 mm 4 m/S 741 mmHg 71%
    20:00 +10°C° 0.2 mm 4 m/S 741 mmHg 73%
    21:00 +10°C° 0.1 mm 4 m/S 740 mmHg 76%
    22:00 +9°C° 0.1 mm 5 m/S 740 mmHg 80%
    23:00 +8°C° 0.1 mm 5 m/S 739 mmHg 83%

    Morgen, 18 September, Mittwoch

    Zeit Temperatur Niederschläge Wind Luftdruck Luftfeuchtigkeit
    00:00 +8°C° 0.8 mm 5 m/S 739 mmHg 86%
    01:00 +7°C° 0.8 mm 5 m/S 739 mmHg 88%
    02:00 +6°C° 0.8 mm 5 m/S 738 mmHg 90%
    03:00 +6°C° 0.9 mm 5 m/S 738 mmHg 89%
    04:00 +6°C° 0.9 mm 5 m/S 738 mmHg 89%
    05:00 +6°C° 0.9 mm 5 m/S 738 mmHg 88%
    06:00 +5°C° 0.1 mm 6 m/S 738 mmHg 87%
    07:00 +5°C° 0.1 mm 6 m/S 739 mmHg 87%
    08:00 +5°C° 0.1 mm 7 m/S 739 mmHg 86%
    09:00 +5°C° 0 mm 7 m/S 740 mmHg 84%
    10:00 +7°C° 0 mm 6 m/S 740 mmHg 81%
    11:00 +7°C° 0 mm 6 m/S 741 mmHg 79%
    12:00 +8°C° 0.1 mm 6 m/S 741 mmHg 74%
    13:00 +9°C° 0.1 mm 7 m/S 741 mmHg 70%
    14:00 +10°C° 0.1 mm 7 m/S 742 mmHg 65%
    15:00 +10°C° 0.1 mm 7 m/S 743 mmHg 66%
    16:00 +11°C° 0.1 mm 6 m/S 743 mmHg 67%
    17:00 +12°C° 0.1 mm 5 m/S 744 mmHg 67%
    18:00 +10°C° 0.1 mm 5 m/S 745 mmHg 73%
    19:00 +9°C° 0.1 mm 5 m/S 745 mmHg 78%
    20:00 +8°C° 0.1 mm 5 m/S 746 mmHg 83%
    21:00 +8°C° 0 mm 5 m/S 746 mmHg 85%
    22:00 +7°C° 0 mm 5 m/S 747 mmHg 87%
    23:00 +7°C° 0 mm 5 m/S 747 mmHg 88%

    übermorgen, 19 September, Donnerstag

    Zeit Temperatur Niederschläge Wind Luftdruck Luftfeuchtigkeit
    00:00 +6°C° 0 mm 5 m/S 748 mmHg 90%
    01:00 +6°C° 0 mm 5 m/S 748 mmHg 91%
    02:00 +5°C° 0 mm 5 m/S 748 mmHg 93%
    03:00 +5°C° 0 mm 5 m/S 748 mmHg 93%
    04:00 +5°C° 0 mm 4 m/S 748 mmHg 93%
    05:00 +5°C° 0 mm 4 m/S 749 mmHg 93%
    06:00 +5°C° 0 mm 4 m/S 749 mmHg 90%
    07:00 +6°C° 0 mm 4 m/S 749 mmHg 88%
    08:00 +6°C° 0 mm 5 m/S 749 mmHg 85%
    09:00 +7°C° 0.1 mm 5 m/S 750 mmHg 81%
    10:00 +8°C° 0.1 mm 5 m/S 750 mmHg 77%
    11:00 +10°C° 0.1 mm 5 m/S 750 mmHg 73%
    12:00 +10°C° 0.2 mm 5 m/S 750 mmHg 72%
    13:00 +10°C° 0.2 mm 5 m/S 750 mmHg 71%
    14:00 +12°C° 0.2 mm 5 m/S 750 mmHg 70%
    15:00 +12°C° 0.1 mm 5 m/S 750 mmHg 71%
    16:00 +12°C° 0.1 mm 4 m/S 750 mmHg 71%
    17:00 +12°C° 0.1 mm 4 m/S 750 mmHg 71%
    18:00 +10°C° 0.2 mm 3 m/S 750 mmHg 76%
    19:00 +9°C° 0.2 mm 3 m/S 750 mmHg 82%
    20:00 +8°C° 0.2 mm 3 m/S 750 mmHg 87%
    21:00 +8°C° 0 mm 3 m/S 750 mmHg 88%
    22:00 +7°C° 0 mm 3 m/S 750 mmHg 89%
    23:00 +7°C° 0 mm 3 m/S 750 mmHg 89%

    20 September, Freitag

    Zeit Temperatur Niederschläge Wind Luftdruck Luftfeuchtigkeit
    00:00 +7°C° 0 mm 3 m/S 750 mmHg 90%
    01:00 +6°C° 0 mm 4 m/S 751 mmHg 91%
    02:00 +5°C° 0 mm 4 m/S 751 mmHg 91%
    03:00 +5°C° 0 mm 4 m/S 751 mmHg 93%
    04:00 +4°C° 0 mm 4 m/S 751 mmHg 94%
    05:00 +3°C° 0 mm 4 m/S 751 mmHg 96%
    06:00 +4°C° 0 mm 4 m/S 751 mmHg 91%
    07:00 +3°C° 0 mm 5 m/S 751 mmHg 87%
    08:00 +5°C° 0 mm 5 m/S 751 mmHg 82%
    09:00 +5°C° 0 mm 6 m/S 752 mmHg 74%
    10:00 +7°C° 0 mm 6 m/S 752 mmHg 65%
    11:00 +9°C° 0 mm 6 m/S 752 mmHg 57%
    12:00 +9°C° 0.2 mm 7 m/S 752 mmHg 55%
    13:00 +10°C° 0.2 mm 7 m/S 752 mmHg 54%
    14:00 +10°C° 0.2 mm 7 m/S 752 mmHg 53%
    15:00 +10°C° 0.1 mm 6 m/S 752 mmHg 56%
    16:00 +9°C° 0.1 mm 5 m/S 752 mmHg 59%
    17:00 +10°C° 0.1 mm 4 m/S 752 mmHg 62%
    18:00 +7°C° 0 mm 4 m/S 753 mmHg 68%
    19:00 +7°C° 0 mm 3 m/S 753 mmHg 75%
    20:00 +4°C° 0 mm 3 m/S 754 mmHg 81%
    21:00 +4°C° 0 mm 3 m/S 754 mmHg 85%
    22:00 +3°C° 0 mm 3 m/S 754 mmHg 89%
    23:00 +3°C° 0 mm 3 m/S 755 mmHg 92%

    21 September, Samstag

    Zeit Temperatur Niederschläge Wind Luftdruck Luftfeuchtigkeit
    00:00 +3°C° 0 mm 3 m/S 755 mmHg 93%
    01:00 +2°C° 0 mm 3 m/S 755 mmHg 94%
    02:00 +2°C° 0 mm 3 m/S 756 mmHg 94%
    03:00 +2°C° 0 mm 3 m/S 756 mmHg 95%
    04:00 +1°C° 0 mm 3 m/S 756 mmHg 95%
    05:00 +1°C° 0 mm 3 m/S 756 mmHg 96%
    06:00 +2°C° 0 mm 3 m/S 757 mmHg 90%
    07:00 +3°C° 0 mm 3 m/S 757 mmHg 85%
    08:00 +3°C° 0 mm 3 m/S 757 mmHg 80%
    09:00 +5°C° 0 mm 3 m/S 757 mmHg 70%
    10:00 +8°C° 0 mm 3 m/S 757 mmHg 60%
    11:00 +10°C° 0 mm 3 m/S 758 mmHg 50%
    12:00 +11°C° 0 mm 3 m/S 757 mmHg 48%
    13:00 +11°C° 0 mm 3 m/S 757 mmHg 46%
    14:00 +12°C° 0 mm 3 m/S 757 mmHg 44%
    15:00 +12°C° 0 mm 3 m/S 757 mmHg 49%
    16:00 +12°C° 0 mm 3 m/S 756 mmHg 53%
    17:00 +11°C° 0 mm 3 m/S 756 mmHg 57%
    18:00 +10°C° 0 mm 3 m/S 756 mmHg 59%
    19:00 +10°C° 0 mm 3 m/S 756 mmHg 61%
    20:00 +9°C° 0 mm 3 m/S 756 mmHg 63%
    21:00 +8°C° 0 mm 3 m/S 756 mmHg 65%
    22:00 +7°C° 0 mm 4 m/S 756 mmHg 66%
    23:00 +7°C° 0 mm 4 m/S 755 mmHg 68%

    22 September, Sonntag

    Zeit Temperatur Niederschläge Wind Luftdruck Luftfeuchtigkeit
    00:00 +7°C° 0 mm 4 m/S 755 mmHg 67%
    01:00 +6°C° 0 mm 4 m/S 755 mmHg 67%
    02:00 +6°C° 0 mm 4 m/S 755 mmHg 67%
    03:00 +6°C° 0 mm 4 m/S 755 mmHg 70%
    04:00 +6°C° 0 mm 4 m/S 755 mmHg 73%
    05:00 +6°C° 0 mm 4 m/S 755 mmHg 76%
    06:00 +7°C° 0 mm 4 m/S 755 mmHg 75%
    07:00 +8°C° 0 mm 4 m/S 754 mmHg 73%
    08:00 +8°C° 0 mm 5 m/S 754 mmHg 71%
    09:00 +10°C° 0 mm 5 m/S 754 mmHg 65%
    10:00 +13°C° 0 mm 5 m/S 754 mmHg 60%
    11:00 +15°C° 0 mm 5 m/S 754 mmHg 54%
    12:00 +16°C° 0 mm 5 m/S 754 mmHg 52%
    13:00 +17°C° 0 mm 5 m/S 753 mmHg 50%
    14:00 +19°C° 0 mm 5 m/S 753 mmHg 48%
    15:00 +18°C° 0 mm 4 m/S 753 mmHg 52%
    16:00 +18°C° 0 mm 3 m/S 752 mmHg 56%
    17:00 +17°C° 0 mm 2 m/S 752 mmHg 60%
    18:00 +15°C° 0 mm 2 m/S 751 mmHg 63%
    19:00 +14°C° 0 mm 2 m/S 751 mmHg 67%
    20:00 +12°C° 0 mm 2 m/S 751 mmHg 71%
    21:00 +12°C° 0 mm 2 m/S 751 mmHg 72%
    22:00 +10°C° 0 mm 2 m/S 751 mmHg 74%
    23:00 +10°C° 0 mm 1 m/S 750 mmHg 75%
    Mehr zeigen